Regional Weather Roundup
Issued by NWS

Home | Current Version | Previous Version | Text Only | Print | Product List | Glossary On
Versions: 1 2 3 4 5 6 7 8 9 10 11 12 13 14 15 16 17 18 19 20 21 22 23 24 25 26 27 28 29 30 31 32 33 34 35 36 37 38 39 40 41 42 43 44 45 46 47 48 49 50
000
ASUS45 KSLC 300110
RWRUT

UTAH REGIONAL WEATHER ROUNDUP
NATIONAL WEATHER SERVICE SALT LAKE CITY UT
700 PM MDT MON MAY 29 2017

UTZ001>011-023>025-300200-

NORTHERN UTAH

CITY           SKY/WX    TMP DP  RH WIND       PRES   REMARKS
BRIGHAM CITY   SUNNY     80  28  14 NW6       30.04F
HILL AFB       SUNNY     77  39  25 NW8       30.06F
LOGAN          SUNNY     78  40  25 N6        30.05F
OGDEN          SUNNY     78  37  22 NW12      30.04F
SALT LAKE CITY MOSUNNY   82  38  20 N12       30.02F
TOOELE VALLEY  SUNNY     77  41  27 N3        30.04F
WENDOVER       SUNNY     80  31  16 SE8       30.04F
WEST JORDAN    SUNNY     77  49  36 NW12      30.05F

$$

UTZ011>015-024>027-300200-

CENTRAL/NORTHEAST UTAH

CITY           SKY/WX    TMP DP  RH WIND       PRES   REMARKS
PROVO AIRPORT  MOSUNNY   82  25  12 VRB5      30.04S
MOAB/CANYONLAN SUNNY     84   9   6 N6        29.99S
DELTA          SUNNY     79  12   8 CALM      30.04S
PRICE          MOSUNNY   78  22  12 CALM      30.09F
ROOSEVELT      MOSUNNY   77  30  18 N5        30.11S
VERNAL         MOSUNNY   76  30  18 CALM      30.09F

$$

UTZ013>016-019>022-027-300200-

SOUTHERN UTAH

CITY           SKY/WX    TMP DP  RH WIND       PRES   REMARKS
BRYCE CANYON   MOSUNNY   66  25  21 W8        30.20S
CEDAR CITY     SUNNY     80  19  10 NE9       30.04F
MILFORD        SUNNY     82  17   9 N8        30.02F
ST GEORGE      PTCLDY    94  19   6 NW8       29.83
HANKSVILLE     SUNNY     86  21   9 NE7       29.99F
BLANDING       MOSUNNY   78  22  12 NE7       30.15S

$$

REGIONAL REPORTS     COLORADO/ARIZONA

CITY           SKY/WX    TMP DP  RH WIND       PRES   REMARKS
CRAIG, CO      SUNNY     69  32  25 N6        30.18F
GRAND JUNCTION SUNNY     80  26  13 W7        30.02F
RIFLE, CO      SUNNY     77  22  13 N12       30.09R
MONTROSE, CO   SUNNY     77  19  11 NW12      30.09F
CORTEZ, CO     SUNNY     78  18  10 NW8       30.08S
COLORADO CITY    N/A     88  23   9 CALM      30.01S
PAGE, AZ       SUNNY     88  16   7 E9        29.95F
GRAND CANYON   PTSUNNY   74  24  15 SW15G25   30.13S
KINGMAN, AZ    MOSUNNY   91  23   8 SW15      29.87S
FLAGSTAFF, AZ  MOSUNNY   72  10   9 SW8       30.13S

$$

REGIONAL REPORTS    NEVADA/IDAHO/WYOMING

CITY           SKY/WX    TMP DP  RH WIND       PRES   REMARKS
LAS VEGAS, NV  PTSUNNY   97  10   4 N5        29.76F HX  90
ELY, NY        CLOUDY    75  24  15 S20G26    30.10R
ELKO, NV       MOSUNNY   81  22  11 NE8       30.04F
POCATELLO, ID  MOSUNNY   77  40  26 NW3       30.08F
BURLEY, ID       N/A     79  37  22 E6        30.03F
FORT BRIDGER,    N/A     68  25  19 CALM      30.24S
EVANSTON, WY   SUNNY     69  27  20 N7        30.21S
ROCK SPRINGS,  LGT RAIN  61  37  41 E13       30.20F
KEMMERER, WY     N/A     64  32  29 CALM      30.24S

$$



USA.gov is the U.S. government's official web portal to all federal, state and local government web resources and services.